Location: Kellogg
(38.0159°N, 90.0546°W)
Time: 09:09:35
(UTC+00:00)

Altair - Pass Details

Date: 15 September 2024
Orbit: 1501 x 1682 km, 47.2° (Epoch: 07 October)

Event Time Altitude Azimuth Distance (km) Brightness Sun altitude
Rises 09:33:04 0° 255° (WSW) 4,859 - -25.3°
Reaches altitude 10° 09:36:14 10° 259° (W) 3,893 - -24.8°
Exits shadow 09:41:10 33° 271° (W) 2,529 8.1 -23.9°
Maximum altitude 09:46:11 63° 340° (NNW) 1,836 7.8 -23.0°
Drops below altitude 10° 09:56:18 10° 61° (ENE) 3,945 10.8 -21.2°
Sets 09:59:32 0° 65° (ENE) 4,928 11.7 -20.6°
